�������C�����ː����j�^�v���󋵏��
Date,Time,Cs137(Bq/L),Cs134(Bq/L),�S��(Bq/L)
2019/01/21,00:00,0.31,ND,16
2019/01/21,00:10,0.31,ND,16
2019/01/21,00:20,0.30,ND,16
2019/01/21,00:30,0.28,ND,16
2019/01/21,00:40,0.28,ND,14
2019/01/21,00:50,0.28,ND,15
2019/01/21,01:00,0.28,ND,16
2019/01/21,01:10,0.28,ND,20
2019/01/21,01:20,0.29,ND,22
2019/01/21,01:30,0.31,ND,21
2019/01/21,01:40,0.32,ND,19
2019/01/21,01:50,0.30,ND,21
2019/01/21,02:00,0.32,ND,22
2019/01/21,02:10,0.32,ND,20
2019/01/21,02:20,0.31,ND,16
2019/01/21,02:30,0.30,ND,18
2019/01/21,02:40,0.28,ND,16
2019/01/21,02:50,0.28,ND,14
2019/01/21,03:00,0.30,ND,13
2019/01/21,03:10,0.30,ND,13
2019/01/21,03:20,0.29,ND,15
2019/01/21,03:30,0.29,ND,14
2019/01/21,03:40,0.32,ND,15
2019/01/21,03:50,0.33,ND,15
2019/01/21,04:00,0.31,ND,16
2019/01/21,04:10,0.31,ND,18
2019/01/21,04:20,0.32,ND,18
2019/01/21,04:30,0.32,ND,17
2019/01/21,04:40,0.29,ND,19
2019/01/21,04:50,0.29,ND,19
2019/01/21,05:00,0.29,ND,17
2019/01/21,05:10,0.30,ND,18
2019/01/21,05:20,0.31,ND,15
2019/01/21,05:30,0.33,ND,19
2019/01/21,05:40,0.35,ND,18
2019/01/21,05:50,0.34,ND,21
2019/01/21,06:00,0.34,ND,22
2019/01/21,06:10,0.32,ND,20
2019/01/21,06:20,0.32,ND,21
2019/01/21,06:30,0.30,ND,18
2019/01/21,06:40,0.30,ND,18
2019/01/21,06:50,0.30,ND,16
2019/01/21,07:00,0.29,ND,14
2019/01/21,07:10,0.30,ND,16
2019/01/21,07:20,0.28,ND,18
2019/01/21,07:30,0.30,ND,17
2019/01/21,07:40,0.30,ND,18
2019/01/21,07:50,0.31,ND,17
2019/01/21,08:00,0.33,ND,16
2019/01/21,08:10,0.28,ND,16
2019/01/21,08:20,0.27,ND,16
2019/01/21,08:30,0.30,ND,16
2019/01/21,08:40,0.28,ND,15
2019/01/21,08:50,0.27,ND,16
2019/01/21,09:00,0.27,ND,16
2019/01/21,09:10,0.26,ND,18
2019/01/21,09:20,0.19,ND,17
2019/01/21,09:30,0.27,ND,17
2019/01/21,09:40,0.21,ND,19
2019/01/21,09:50,0.29,ND,20
2019/01/21,10:00,0.28,ND,19
2019/01/21,10:10,0.31,ND,19
2019/01/21,10:20,0.31,ND,20
2019/01/21,10:30,0.31,ND,21
2019/01/21,10:40,0.33,ND,21
2019/01/21,10:50,0.33,ND,21
2019/01/21,11:00,0.30,ND,23
2019/01/21,11:10,0.35,ND,23
2019/01/21,11:20,0.29,ND,24
2019/01/21,11:30,0.33,ND,26
2019/01/21,11:40,0.31,ND,25
2019/01/21,11:50,0.28,ND,23
2019/01/21,12:00,0.27,ND,21
2019/01/21,12:10,0.24,ND,20
2019/01/21,12:20,0.17,ND,16
2019/01/21,12:30,0.26,ND,10
2019/01/21,12:40,0.26,ND,13
2019/01/21,12:50,0.27,ND,16
2019/01/21,13:00,0.27,ND,16
2019/01/21,13:10,0.30,ND,12
2019/01/21,13:20,0.29,ND,15
2019/01/21,13:30,0.26,ND,21
2019/01/21,13:40,0.24,ND,17
2019/01/21,13:50,0.24,ND,15
2019/01/21,14:00,0.24,ND,18
2019/01/21,14:10,0.23,ND,18
2019/01/21,14:20,0.24,ND,18
2019/01/21,14:30,0.26,ND,16
2019/01/21,14:40,0.22,ND,18
2019/01/21,14:50,0.26,ND,20
2019/01/21,15:00,0.20,ND,18
2019/01/21,15:10,0.18,ND,18
2019/01/21,15:20,0.20,ND,16
2019/01/21,15:30,0.21,ND,15
2019/01/21,15:40,0.21,ND,13
2019/01/21,15:50,0.22,ND,12
2019/01/21,16:00,0.28,ND,14
2019/01/21,16:10,0.28,ND,17
2019/01/21,16:20,0.28,ND,20
2019/01/21,16:30,0.26,ND,21
2019/01/21,16:40,0.18,ND,22
2019/01/21,16:50,0.19,ND,22
2019/01/21,17:00,0.28,ND,19
2019/01/21,17:10,0.29,ND,16
2019/01/21,17:20,0.28,ND,16
2019/01/21,17:30,0.27,ND,13
2019/01/21,17:40,0.24,ND,13
2019/01/21,17:50,0.24,ND,11
2019/01/21,18:00,0.27,ND,12
2019/01/21,18:10,0.25,ND,12
2019/01/21,18:20,0.25,ND,13
2019/01/21,18:30,0.26,ND,12
2019/01/21,18:40,0.27,ND,15
2019/01/21,18:50,0.27,ND,18
2019/01/21,19:00,0.29,ND,18
2019/01/21,19:10,0.31,ND,19
2019/01/21,19:20,0.33,ND,17
2019/01/21,19:30,0.34,ND,19
2019/01/21,19:40,0.32,ND,15
2019/01/21,19:50,0.32,ND,14
2019/01/21,20:00,0.30,ND,16
2019/01/21,20:10,0.30,ND,16
2019/01/21,20:20,0.28,ND,17
2019/01/21,20:30,0.30,ND,18
2019/01/21,20:40,0.31,ND,21
2019/01/21,20:50,0.30,ND,20
2019/01/21,21:00,0.31,ND,20
2019/01/21,21:10,0.32,ND,20
2019/01/21,21:20,0.33,ND,22
2019/01/21,21:30,0.30,ND,20
2019/01/21,21:40,0.30,ND,22
2019/01/21,21:50,0.32,ND,23
2019/01/21,22:00,0.32,ND,20
2019/01/21,22:10,0.29,ND,20
2019/01/21,22:20,0.29,ND,19
2019/01/21,22:30,0.36,ND,19
2019/01/21,22:40,0.35,ND,16
2019/01/21,22:50,0.35,ND,15
2019/01/21,23:00,0.34,ND,16
2019/01/21,23:10,0.32,ND,16
2019/01/21,23:20,0.33,ND,18
2019/01/21,23:30,0.31,ND,19
2019/01/21,23:40,0.30,ND,16
2019/01/21,23:50,0.29,ND,15
